Location: Gull Harbor
(47.1000°N, 122.9000°W)
Time: 20:48:13
(UTC-07:00)

Envisat - Visible Passes

Search period start: 22 April 2018 00:00
Search period end: 02 May 2018 00:00
Orbit: 764 x 766 km, 98.2° (Epoch: 22 April)

Date Brightness Start Highest point End Pass type
(mag) Time Alt. Az. Time Alt. Az. Time Alt. Az.
22 Apr 5.1 21:31:38 10° SSW 21:35:48 25° W 21:39:58 10° NW visible
23 Apr 3.9 20:53:53 10° S 20:58:49 52° W 21:03:48 10° NNW visible
24 Apr 5.7 21:58:48 10° WSW 22:01:40 15° W 22:04:33 10° NW visible
25 Apr 4.8 21:20:05 10° SSW 21:24:33 31° W 21:29:04 10° NNW visible
26 Apr 3.5 20:42:36 10° S 20:47:39 64° WSW 20:52:43 10° NNW visible
27 Apr 5.6 21:46:51 10° SW 21:50:23 19° W 21:53:56 10° NW visible
28 Apr 4.5 21:08:37 10° SSW 21:13:20 38° W 21:18:05 10° NNW visible
29 Apr 5.9 22:15:09 10° W 22:16:19 11° W 22:17:30 10° WNW visible
30 Apr 5.3 21:35:07 10° SW 21:39:07 23° W 21:43:09 10° NW visible
01 May 4.1 20:57:14 10° S 21:02:07 47° W 21:07:02 10° NNW visible
